Simultaneous Nadir Overpasses (SNOs) Predictions

Prediction of SNOs between GOES-17 and NOAA-19 Satellite Orbit:

Table of predicted SNOs for the next 14.0 days since TLE Epoch: 7/9/2023
Index Date Time (GOES-17) GOES-17 Lat,Lon NOAA-19 Lat,Lon Distance(km) Time Diff (sec)
1 07/10/2023 15:47:18 0.00,-104.75 0.59,-107.42 304.56 80
2 07/11/2023 15:37:54 -0.00,-104.75 -0.06,-104.48 30.74 80
3 07/12/2023 15:25:52 -0.00,-104.75 -0.77,-101.55 366.01 80
4 07/15/2023 03:46:01 0.01,-104.72 -0.39,-106.33 184.82 80
5 07/16/2023 03:31:18 0.01,-104.72 0.31,-103.40 150.19 80
6 07/17/2023 03:19:16 0.00,-104.72 1.01,-100.47 485.24 80
7 07/18/2023 15:51:16 -0.01,-104.76 0.79,-108.14 386.11 80
8 07/19/2023 15:39:13 -0.00,-104.77 0.12,-105.21 50.64 80
9 07/20/2023 15:29:50 -0.00,-104.77 -0.60,-102.28 285.06 80
